SPORT

导读

**SPORT卫星**,由巴西于1998年11月20日08:00发射升空,是巴西航天发展历程中的一颗实验性卫星。作为巴西早期航天尝试的成果,该卫星承载了巴西对空间技术探索的使命,推动了南美地区航天领域技术积累与人才培养,见证了巴西航天从起步到逐步发展的关键一步,为后续巴西卫星研发和发射积累了宝贵实践经验。

Basic Information
目录编号:
55129
目录名称:
SPORT
国际标识:
1998-067UW
轨道中心:
EARTH
卫星名称:
SPORT
卫星全名:
--
卫星状态:
已陨落 最后检测时间 2023-10-11
发射日期:
1998-11-20 UTC
国别 :
巴西 (BR)
星等 :
--
Orbit Information
数据来源 国际轨道数据
星历时间: 2023-10-09T14:47:26+0800
轨道信息已过期1009天
半长轴: 6562.277km
偏心率: 0.0009396
轨道倾角: 51.611°
近地点辐角 288.409°
升交点赤经 85.182°
平近点角 71.591°
近地点: 177.976km
远地点: 190.308km
周期: 88.174分钟
每日圈数: 16.331309
Detailed Information
使用方式:
暂无